| time (UTC) | temp F | wind direction | speed MPH | gust MPH | rain 1hr in | rain 24hr in | rain mn in | humidity % | barometer mb |
| 20260906090005 | 76 | 0 | 0.0 | 0.0 | 0.00 | 0.11 | 0.00 | 99 | 1009.9 |
| 20260906085005 | 76 | 0 | 0.0 | 0.0 | 0.00 | 0.11 | 0.00 | 99 | 1010.0 |
| 20260906084005 | 76 | 0 | 0.0 | 0.0 | 0.00 | 0.11 | 0.00 | 98 | 1009.8 |
| 20260906083005 | 76 | 0 | 0.0 | 0.0 | 0.00 | 0.11 | 0.00 | 98 | 1009.7 |
| 20260906082004 | 76 | 227 | 0.0 | 1.0 | 0.00 | 0.11 | 0.00 | 98 | 1009.6 |
| 20260906081004 | 76 | 228 | 0.0 | 1.0 | 0.00 | 0.11 | 0.00 | 98 | 1009.8 |
| 20260906080005 | 76 | 222 | 0.0 | 1.0 | 0.00 | 0.11 | 0.00 | 98 | 1009.6 |
| 20260906075005 | 76 | 0 | 0.0 | 0.0 | 0.00 | 0.11 | 0.00 | 98 | 1009.4 |
| 20260906074005 | 76 | 205 | 0.0 | 1.0 | 0.00 | 0.11 | 0.00 | 98 | 1009.4 |
| 20260906073005 | 77 | 220 | 0.0 | 1.0 | 0.00 | 0.11 | 0.00 | 98 | 1009.4 |
| 20260906072218 | 77 | 230 | 0.0 | 1.0 | 0.00 | 0.11 | 0.00 | 97 | 1009.4 |
| 20260906071005 | 77 | 230 | 0.0 | 2.0 | 0.00 | 0.11 | 0.00 | 97 | 1009.3 |
| 20260906070005 | 77 | 218 | 0.0 | 2.0 | 0.00 | 0.11 | 0.00 | 97 | 1009.5 |
| 20260906065004 | 77 | 0 | 0.0 | 0.0 | 0.00 | 0.11 | 0.00 | 97 | 1009.6 |
| 20260906064005 | 77 | 177 | 0.0 | 1.0 | 0.00 | 0.11 | 0.00 | 97 | 1009.7 |
| 20260906063217 | 77 | 207 | 0.0 | 2.0 | 0.00 | 0.11 | 0.00 | 96 | 1010.0 |
| 20260906062218 | 77 | 223 | 0.0 | 2.0 | 0.00 | 0.11 | 0.00 | 96 | 1009.9 |
| 20260906061214 | 78 | 237 | 1.0 | 3.0 | 0.00 | 0.11 | 0.00 | 96 | 1009.8 |
| 20260906060215 | 78 | 233 | 2.0 | 3.0 | 0.00 | 0.11 | 0.00 | 96 | 1009.9 |
| 20260906055005 | 78 | 218 | 1.0 | 3.0 | 0.00 | 0.11 | 0.00 | 97 | 1010.1 |
| 20260906054004 | 78 | 230 | 1.0 | 4.0 | 0.00 | 0.11 | 0.00 | 97 | 1010.1 |
| 20260906053004 | 78 | 214 | 1.0 | 2.0 | 0.00 | 0.11 | 0.00 | 97 | 1010.6 |
| 20260906052005 | 77 | 218 | 1.0 | 2.0 | 0.00 | 0.11 | 0.00 | 97 | 1010.6 |
| 20260906051215 | 77 | 215 | 1.0 | 2.0 | 0.00 | 0.11 | 0.00 | 97 | 1011.0 |
| 20260906050005 | 77 | 163 | 0.0 | 1.0 | 0.00 | 0.11 | 0.00 | 97 | 1010.8 |
| 20260906045004 | 77 | 185 | 0.0 | 1.0 | 0.00 | 0.11 | 0.00 | 97 | 1010.8 |
| 20260906044005 | 77 | 149 | 0.0 | 1.0 | 0.00 | 0.11 | 0.00 | 97 | 1011.0 |
| 20260906043004 | 77 | 156 | 0.0 | 1.0 | 0.00 | 0.11 | 0.00 | 97 | 1010.9 |
| 20260906042005 | 77 | 128 | 0.0 | 2.0 | 0.00 | 0.11 | 0.00 | 97 | 1011.3 |
| 20260906041005 | 77 | 0 | 0.0 | 0.0 | 0.00 | 0.11 | 0.00 | 97 | 1011.2 |
| 20260906040028 | 77 | 159 | 0.0 | 1.0 | 0.00 | 0.11 | 0.00 | 97 | 1011.4 |
| 20260906035004 | 77 | 0 | 0.0 | 0.0 | 0.00 | 0.11 | 0.11 | 97 | 1011.6 |
| 20260906034213 | 77 | 160 | 0.0 | 1.0 | 0.00 | 0.11 | 0.11 | 97 | 1011.2 |
| 20260906033005 | 77 | 0 | 0.0 | 0.0 | 0.00 | 0.11 | 0.11 | 97 | 1011.4 |
| 20260906032004 | 78 | 0 | 0.0 | 0.0 | 0.00 | 0.11 | 0.11 | 97 | 1011.2 |
| 20260906031005 | 78 | 0 | 0.0 | 0.0 | 0.00 | 0.11 | 0.11 | 97 | 1011.2 |
| 20260906030005 | 78 | 0 | 0.0 | 0.0 | 0.00 | 0.11 | 0.11 | 96 | 1011.2 |
| 20260906025005 | 78 | 0 | 0.0 | 0.0 | 0.00 | 0.11 | 0.11 | 96 | 1011.3 |
| 20260906024005 | 78 | 0 | 0.0 | 0.0 | 0.00 | 0.12 | 0.11 | 96 | 1011.3 |
| 20260906023004 | 78 | 184 | 0.0 | 2.0 | 0.00 | 0.12 | 0.11 | 96 | 1011.0 |
| 20260906022005 | 78 | 0 | 0.0 | 0.0 | 0.00 | 0.12 | 0.11 | 96 | 1011.2 |
| 20260906021004 | 78 | 189 | 0.0 | 1.0 | 0.00 | 0.13 | 0.11 | 96 | 1010.6 |
| 20260906020005 | 79 | 173 | 0.0 | 2.0 | 0.00 | 0.14 | 0.11 | 97 | 1010.9 |
| 20260906015005 | 79 | 142 | 0.0 | 1.0 | 0.00 | 0.15 | 0.11 | 97 | 1010.9 |
| 20260906014005 | 79 | 157 | 0.0 | 1.0 | 0.00 | 0.16 | 0.11 | 96 | 1010.5 |
| 20260906013005 | 79 | 157 | 0.0 | 1.0 | 0.00 | 0.18 | 0.11 | 96 | 1010.3 |
| 20260906012004 | 79 | 158 | 0.0 | 1.0 | 0.00 | 0.18 | 0.11 | 96 | 1010.2 |
| 20260906011005 | 80 | 171 | 0.0 | 2.0 | 0.00 | 0.18 | 0.11 | 96 | 1010.4 |
| 20260906010005 | 80 | 158 | 0.0 | 2.0 | 0.00 | 0.18 | 0.11 | 95 | 1010.1 |
| 20260906005005 | 80 | 138 | 0.0 | 2.0 | 0.00 | 0.19 | 0.11 | 95 | 1010.2 |
| 20260906004004 | 80 | 147 | 0.0 | 2.0 | 0.00 | 0.19 | 0.11 | 95 | 1009.9 |
| 20260906003005 | 80 | 186 | 0.0 | 2.0 | 0.00 | 0.20 | 0.11 | 95 | 1010.2 |
| 20260906002217 | 80 | 146 | 0.0 | 2.0 | 0.00 | 0.20 | 0.11 | 95 | 1010.0 |
| 20260906001218 | 80 | 157 | 0.0 | 2.0 | 0.00 | 0.21 | 0.11 | 94 | 1010.0 |
| 20260906000004 | 81 | 151 | 0.0 | 3.0 | 0.00 | 0.22 | 0.11 | 94 | 1010.1 |
| 20260905235005 | 81 | 147 | 0.0 | 2.0 | 0.00 | 0.24 | 0.11 | 94 | 1009.8 |
| 20260905234005 | 82 | 154 | 1.0 | 3.0 | 0.00 | 0.24 | 0.11 | 93 | 1010.1 |
| 20260905233004 | 82 | 125 | 0.0 | 1.0 | 0.00 | 0.26 | 0.11 | 94 | 1009.9 |
| 20260905232005 | 83 | 148 | 0.0 | 2.0 | 0.00 | 0.29 | 0.11 | 93 | 1010.0 |
| 20260905231004 | 83 | 195 | 0.0 | 2.0 | 0.00 | 0.29 | 0.11 | 92 | 1010.0 |
| 20260905230005 | 84 | 204 | 0.0 | 1.0 | 0.00 | 0.29 | 0.11 | 91 | 1010.3 |
| 20260905225004 | 84 | 194 | 1.0 | 2.0 | 0.00 | 0.29 | 0.11 | 90 | 1009.9 |
| 20260905224005 | 84 | 146 | 0.0 | 2.0 | 0.00 | 0.30 | 0.11 | 89 | 1010.0 |
| 20260905223004 | 84 | 105 | 0.0 | 1.0 | 0.00 | 0.31 | 0.11 | 90 | 1009.8 |
| 20260905222218 | 84 | 124 | 1.0 | 2.0 | 0.00 | 0.32 | 0.11 | 90 | 1010.3 |
| 20260905221214 | 84 | 170 | 0.0 | 2.0 | 0.00 | 0.39 | 0.11 | 90 | 1010.0 |
| 20260905220005 | 84 | 156 | 1.0 | 2.0 | 0.00 | 0.50 | 0.11 | 91 | 1010.1 |
| 20260905215005 | 83 | 139 | 0.0 | 2.0 | 0.00 | 0.69 | 0.11 | 91 | 1010.6 |
| 20260905214005 | 83 | 153 | 1.0 | 3.0 | 0.00 | 1.00 | 0.11 | 91 | 1010.4 |
| 20260905213005 | 82 | 163 | 1.0 | 2.0 | 0.00 | 1.03 | 0.11 | 90 | 1010.5 |
| 20260905212004 | 82 | 141 | 0.0 | 2.0 | 0.00 | 1.03 | 0.11 | 90 | 1010.7 |
| 20260905211004 | 82 | 74 | 0.0 | 1.0 | 0.00 | 1.03 | 0.11 | 90 | 1010.8 |
| 20260905210005 | 81 | 71 | 0.0 | 2.0 | 0.00 | 1.03 | 0.11 | 90 | 1010.9 |
| 20260905205005 | 81 | 78 | 1.0 | 2.0 | 0.00 | 1.03 | 0.11 | 91 | 1011.0 |
| 20260905204004 | 81 | 78 | 1.0 | 3.0 | 0.00 | 1.03 | 0.11 | 92 | 1010.8 |
| 20260905203005 | 81 | 73 | 1.0 | 2.0 | 0.00 | 1.03 | 0.11 | 91 | 1010.9 |
| 20260905202005 | 81 | 87 | 1.0 | 6.0 | 0.00 | 1.03 | 0.11 | 90 | 1010.8 |
| 20260905201005 | 82 | 83 | 1.0 | 6.0 | 0.00 | 1.03 | 0.11 | 91 | 1010.9 |
| 20260905200005 | 83 | 338 | 1.0 | 2.0 | 0.00 | 1.03 | 0.11 | 90 | 1011.1 |
| 20260905195005 | 83 | 355 | 1.0 | 2.0 | 0.00 | 1.03 | 0.11 | 90 | 1011.2 |
| 20260905194005 | 82 | 352 | 1.0 | 2.0 | 0.00 | 1.03 | 0.11 | 89 | 1011.3 |
| 20260905193004 | 82 | 357 | 2.0 | 7.0 | 0.00 | 1.03 | 0.11 | 89 | 1011.6 |
| 20260905192005 | 83 | 347 | 1.0 | 4.0 | 0.00 | 1.03 | 0.11 | 90 | 1011.0 |
| 20260905191004 | 83 | 219 | 0.0 | 2.0 | 0.00 | 1.03 | 0.11 | 91 | 1011.1 |
| 20260905190005 | 83 | 176 | 0.0 | 1.0 | 0.00 | 1.03 | 0.11 | 92 | 1011.3 |
| 20260905185005 | 82 | 80 | 0.0 | 2.0 | 0.00 | 1.03 | 0.11 | 92 | 1011.5 |
| 20260905184214 | 82 | 321 | 0.0 | 1.0 | 0.00 | 1.03 | 0.11 | 91 | 1011.8 |
| 20260905183004 | 80 | 102 | 0.0 | 2.0 | 0.00 | 1.03 | 0.11 | 92 | 1011.0 |
| 20260905182216 | 81 | 24 | 0.0 | 3.0 | 0.09 | 1.03 | 0.11 | 93 | 1011.0 |
| 20260905181005 | 80 | 128 | 0.0 | 1.0 | 0.11 | 1.03 | 0.11 | 94 | 1011.6 |
| 20260905180005 | 79 | 0 | 0.0 | 0.0 | 0.11 | 1.03 | 0.11 | 94 | 1011.5 |
| 20260905175005 | 80 | 156 | 0.0 | 1.0 | 0.11 | 1.03 | 0.11 | 95 | 1011.2 |
| 20260905174004 | 80 | 166 | 0.0 | 2.0 | 0.11 | 1.03 | 0.11 | 94 | 1011.5 |
| 20260905173005 | 80 | 330 | 2.0 | 9.0 | 0.11 | 1.03 | 0.11 | 93 | 1011.6 |
| 20260905172004 | 87 | 341 | 2.0 | 6.0 | 0.00 | 0.92 | 0.00 | 84 | 1011.7 |
| 20260905171005 | 89 | 347 | 2.0 | 6.0 | 0.00 | 0.92 | 0.00 | 80 | 1011.6 |
| 20260905170005 | 93 | 209 | 1.0 | 4.0 | 0.00 | 0.92 | 0.00 | 72 | 1011.7 |
| 20260905165005 | 91 | 198 | 1.0 | 3.0 | 0.00 | 0.92 | 0.00 | 75 | 1012.0 |
| 20260905164215 | 91 | 208 | 1.0 | 2.0 | 0.00 | 0.92 | 0.00 | 79 | 1012.2 |
| 20260905163005 | 87 | 211 | 1.0 | 3.0 | 0.00 | 0.92 | 0.00 | 83 | 1012.6 |
| 20260905162004 | 87 | 199 | 0.0 | 1.0 | 0.00 | 0.92 | 0.00 | 84 | 1012.6 |
| 20260905161218 | 87 | 204 | 0.0 | 2.0 | 0.00 | 0.92 | 0.00 | 85 | 1012.7 |
| 20260905160006 | 86 | 263 | 1.0 | 2.0 | 0.00 | 0.92 | 0.00 | 86 | 1012.7 |
| 20260905155215 | 86 | 281 | 1.0 | 3.0 | 0.00 | 0.92 | 0.00 | 84 | 1012.6 |
| 20260905154005 | 87 | 262 | 1.0 | 7.0 | 0.00 | 0.92 | 0.00 | 82 | 1013.1 |
| 20260905153005 | 88 | 268 | 1.0 | 3.0 | 0.00 | 0.92 | 0.00 | 81 | 1012.7 |
| 20260905152218 | 88 | 300 | 2.0 | 4.0 | 0.00 | 0.92 | 0.00 | 82 | 1012.8 |
| 20260905151005 | 88 | 341 | 1.0 | 4.0 | 0.00 | 0.92 | 0.00 | 82 | 1013.0 |
| 20260905150006 | 87 | 241 | 1.0 | 4.0 | 0.00 | 0.92 | 0.00 | 86 | 1013.1 |
| 20260905145216 | 87 | 195 | 1.0 | 4.0 | 0.00 | 0.92 | 0.00 | 86 | 1013.2 |
| 20260905144004 | 85 | 266 | 1.0 | 3.0 | 0.00 | 0.92 | 0.00 | 89 | 1013.3 |
| 20260905143217 | 83 | 233 | 1.0 | 2.0 | 0.00 | 0.92 | 0.00 | 91 | 1013.2 |
| 20260905142004 | 81 | 329 | 1.0 | 2.0 | 0.00 | 0.92 | 0.00 | 95 | 1013.2 |
| 20260905141005 | 80 | 280 | 1.0 | 2.0 | 0.00 | 0.92 | 0.00 | 97 | 1013.2 |
| 20260905140215 | 80 | 234 | 1.0 | 2.0 | 0.00 | 0.92 | 0.00 | 98 | 1013.1 |
| 20260905135216 | 80 | 264 | 0.0 | 2.0 | 0.00 | 0.92 | 0.00 | 99 | 1013.2 |
| 20260905134004 | 80 | 269 | 0.0 | 2.0 | 0.00 | 0.92 | 0.00 | 99 | 1013.3 |
| 20260905133004 | 79 | 275 | 0.0 | 2.0 | 0.00 | 0.92 | 0.00 | 99 | 1012.9 |
| 20260905132004 | 79 | 296 | 0.0 | 1.0 | 0.00 | 0.92 | 0.00 | 99 | 1013.0 |
| 20260905131215 | 78 | 251 | 1.0 | 3.0 | 0.00 | 0.92 | 0.00 | 99 | 1013.0 |
| 20260905130005 | 78 | 239 | 1.0 | 3.0 | 0.00 | 0.92 | 0.00 | 99 | 1012.8 |
| 20260905125217 | 78 | 271 | 0.0 | 2.0 | 0.00 | 0.92 | 0.00 | 99 | 1013.1 |
| 20260905124004 | 78 | 176 | 0.0 | 2.0 | 0.00 | 0.92 | 0.00 | 99 | 1012.8 |
| 20260905123005 | 77 | 179 | 0.0 | 1.0 | 0.00 | 0.92 | 0.00 | 99 | 1012.8 |
| 20260905122004 | 77 | 184 | 0.0 | 0.0 | 0.00 | 0.92 | 0.00 | 99 | 1013.1 |
| 20260905121005 | 76 | 190 | 0.0 | 1.0 | 0.00 | 0.92 | 0.00 | 99 | 1012.6 |
| 20260905120006 | 76 | 0 | 0.0 | 0.0 | 0.00 | 0.92 | 0.00 | 99 | 1012.6 |
| 20260905115004 | 76 | 0 | 0.0 | 0.0 | 0.00 | 0.92 | 0.00 | 99 | 1012.0 |
| 20260905114005 | 76 | 231 | 0.0 | 1.0 | 0.00 | 0.92 | 0.00 | 99 | 1012.1 |
| 20260905113005 | 76 | 196 | 0.0 | 2.0 | 0.00 | 0.92 | 0.00 | 99 | 1011.9 |
| 20260905112005 | 76 | 220 | 1.0 | 4.0 | 0.00 | 0.92 | 0.00 | 99 | 1012.1 |
| 20260905111216 | 76 | 242 | 0.0 | 1.0 | 0.00 | 0.92 | 0.00 | 99 | 1011.9 |
| 20260905110006 | 76 | 260 | 0.0 | 2.0 | 0.00 | 0.92 | 0.00 | 99 | 1011.8 |
| 20260905105004 | 76 | 214 | 1.0 | 2.0 | 0.00 | 0.92 | 0.00 | 99 | 1012.1 |
| 20260905104005 | 76 | 0 | 0.0 | 0.0 | 0.00 | 0.92 | 0.00 | 99 | 1011.9 |
| 20260905103215 | 76 | 0 | 0.0 | 0.0 | 0.00 | 0.92 | 0.00 | 99 | 1012.1 |
| 20260905102216 | 76 | 0 | 0.0 | 0.0 | 0.00 | 0.92 | 0.00 | 99 | 1012.0 |
| 20260905101217 | 76 | 0 | 0.0 | 0.0 | 0.00 | 0.92 | 0.00 | 99 | 1011.9 |
| 20260905100218 | 76 | 301 | 0.0 | 1.0 | 0.00 | 0.92 | 0.00 | 99 | 1012.0 |
| 20260905095214 | 76 | 19 | 0.0 | 2.0 | 0.00 | 0.92 | 0.00 | 99 | 1011.7 |
| 20260905094005 | 76 | 144 | 0.0 | 1.0 | 0.00 | 0.92 | 0.00 | 99 | 1011.6 |
| 20260905093005 | 76 | 0 | 0.0 | 0.0 | 0.00 | 0.92 | 0.00 | 99 | 1011.5 |
| 20260905092004 | 76 | 0 | 0.0 | 0.0 | 0.00 | 0.92 | 0.00 | 99 | 1011.7 |
| 20260905091005 | 76 | 0 | 0.0 | 0.0 | 0.00 | 0.92 | 0.00 | 99 | 1011.7 |